Regional Weather Roundup
Issued by NWS

Home | Current Version | Previous Version | Graphics & Text | Print | Product List | Glossary On
Versions: 1 2 3 4 5 6 7 8 9 10 11 12 13 14 15 16 17 18 19 20 21 22 23 24 25 26 27 28 29 30 31 32 33 34 35 36 37 38 39 40 41 42 43 44 45 46 47 48 49 50
000
ASUS45 KTFX 240404
RWRMT
MONTANA HOURLY WEATHER ROUNDUP
NATIONAL WEATHER SERVICE GREAT FALLS MT
1004 PM MDT WED JUL 23 2014

NOTE: "FAIR" INDICATES FEW OR NO CLOUDS BELOW 12000 FEET WITH NO
SIGNIFICANT WEATHER AND/OR OBSTRUCTIONS TO VISIBILITY.

* THESE STATIONS ARE NOT UNDER NWS QUALITY CONTROL. THEY DO NOT
   REPORT WEATHER SUCH AS PRECIPITATION OR FOG.

MTZ001>007-043-240500-
WEST OF THE DIVIDE
CITY           SKY/WX    TMP DP  RH WIND       PRES   REMARKS
KALISPELL      PTCLDY    70  54  57 N9        29.91R
MISSOULA       MOCLDY    75  48  39 SE5       29.89R
BUTTE          PTCLDY    63  52  68 E5        30.04S
MULLAN PASS    LGT RAIN  52  52 100 VRB7G20   30.13R VSB M1/4
* ESSEX        N/A       66  57  73 SW1G7      N/A
* LINCOLN      N/A       59  58  97 N3G21      N/A
* LOOKOUT PASS N/A       57  54  90 N12G18     N/A
* POLSON       N/A       71  51  49 NE4G11     N/A
* RONAN APT    PTCLDY    75  55  50 N/A        N/A
* SEELEY LAKE  N/A       74  41  31 N3G16      N/A
* THOMP F APT  PTCLDY    68  28  22 NE4        N/A
$$

MTZ008-052>055-240500-
SOUTHWEST MONTANA
CITY           SKY/WX    TMP DP  RH WIND       PRES   REMARKS
BOZEMAN        CLEAR     66  54  65 SE10      29.93S
DILLON         CLEAR     72  36  27 SW7       29.98R
W YELLOWSTONE  CLEAR     63  39  41 S5        30.17R
* THREE FORKS  CLEAR     75  59  58 N/A        N/A
* BOULDER HILL N/A       59  49  70 S5         N/A
* MONIDA PASS  N/A       74  24  15 S11        N/A
* RAYNOLDS PAS N/A       65  44  47 SE9        N/A
* WHITEHALL    N/A       80  45  29 N5G12      N/A
* WISE RIVER   N/A       63  56  78 S4G10      N/A
$$

MTZ009>010-012-014-046-048-049-054-240500-
EAST SLOPES AND CENTRAL MONTANA
CITY           SKY/WX    TMP DP  RH WIND       PRES   REMARKS
CUT BANK       PTCLDY    66  54  65 NW8       29.87S
GREAT FALLS    CLOUDY    72  54  53 SW13      29.91F
HELENA         MOCLDY    70  55  59 W12       29.91S
MALMSTROM AFB  CLOUDY    72  52  49 SE9       29.90R
* CONRAD       MOCLDY    73  64  74 N/A        N/A
* DEARBORN     N/A       75  52  45 S10        N/A
* EAST GLACIER N/A       60  50  70 NE1        N/A
* MONARCH      N/A       68  41  38 S10G15     N/A
* PENDROY      N/A       73  53  50 S4         N/A
* ROGERS PASS  N/A       57  51  80 NW3G9      N/A
* SAINT MARY   N/A       69  53  57 E4G10      N/A
* SWEET GRASS  N/A       72  57  59 NE9        N/A
$$

MTZ011-013-016-021-035-040-045-047-050-051-240500-
NORTH CENTRAL MONTANA
CITY           SKY/WX    TMP DP  RH WIND       PRES   REMARKS
HAVRE          PTCLDY    81  59  47 E13       29.81S HI  81
LEWISTOWN      MOCLDY    73  59  62 E5        29.93S
* CHESTER      N/A       83  47  28 SE4        N/A
* DENTON       N/A       76  53  45 SE6        N/A
* JUDITH GAP   N/A       71  52  51 E1G6       N/A
* LOMA         N/A       84  51  32 NE6        N/A
$$

MTZ017>020-022>027-061-062-240500-
NORTHEAST MONTANA
CITY           SKY/WX    TMP DP  RH WIND       PRES   REMARKS
GLASGOW        PTCLDY    82  64  55 E17G29    29.87S HI  84
GLENDIVE       CLEAR     77  59  54 SE16G23   29.96F
JORDAN         MOCLDY    82  63  53 E15       29.85F HI  83
SIDNEY         PTCLDY    77  63  62 SE9       29.97F
WOLF POINT     PTCLDY    82  63  53 E13G23    29.90F HI  83
* BEAVER HILL  N/A       73  60  64 E26G33     N/A
* CIRCLE       N/A       79  64  60 NE8        N/A
* LINDSAY DVD  N/A       74  62  66 E17G24     N/A
* NAVAJO       N/A       71  65  81 E9G17      N/A
$$

MTZ028>042-056>058-240500-
SOUTHCENTRAL AND SOUTHEAST MONTANA
CITY           SKY/WX    TMP DP  RH WIND       PRES   REMARKS
BAKER          CLEAR     72  61  68 SE22G28   30.01R
BILLINGS       PTCLDY    82  61  49 NE8       29.89F HI  83
LIVINGSTON     CLEAR     77  46  33 S7        29.95R
MILES CITY     CLEAR     84  61  46 SE12G22   29.87S HI  84
* LAUREL APT   PTCLDY    79  59  50 N5         N/A
* ROUNDUP APT  PTCLDY    82  55  40 N/A        N/A   HI  81
* ALZADA       N/A       78  64  62 E11        N/A
* HYSHAM       N/A       80  58  47 SE1        N/A   HI  81
* LAME DEER    N/A       83  59  44 E7         N/A   HI  83
* REED POINT   N/A       76  55  48 N/A        N/A
* ROSCOE HILL  N/A       70  52  53 S2         N/A
$$

REGIONAL REPORTS...DAKOTAS
CITY           SKY/WX    TMP DP  RH WIND       PRES   REMARKS
WILLISTON      MOCLDY    75  63  66 SE12      29.99F
DICKINSON      PTCLDY    68  57  68 SE13      30.04F
CROSBY         N/A       66  66 100 E14G20    30.05F
TIOGA          CLEAR     68  68 100 SE12      30.09F
WATFORD CITY   CLEAR     73  63  71 SE14      30.00F
BISMARCK       PTCLDY    72  59  64 SE12      30.10S
GRAND FORKS    PTCLDY    63  57  81 CALM      30.17S
FARGO          PTCLDY    64  59  84 NE3       30.17S
BUFFALO SD     PTCLDY    72  57  59 E20       29.96S
RAPID CITY     PTCLDY    72  64  76 SE8       30.04F
$$

REGIONAL REPORTS...WYOMING/IDAHO/WASHINGTON
CITY           SKY/WX    TMP DP  RH WIND       PRES   REMARKS
GILLETTE       PTCLDY    82  61  49 SE23G32   29.99F HI  83
SHERIDAN       MOCLDY    75  57  54 NW10      29.92F
YELLOWSTONE LA CLEAR     55  43  64 NW3       30.31R
SALMON         PTCLDY    75  45  34 S3        29.90R
MULLAN PASS    LGT RAIN  52  52 100 VRB7G20   30.13S VSB M1/4
SAND POINT     CLOUDY    63  61  93 S9        29.99R
SPOKANE        MOCLDY    61  52  72 S13       30.02R

$$




USA.gov is the U.S. government's official web portal to all federal, state and local government web resources and services.